Location: Bailleul
(50.3375°N, 2.8513°E)
Time: 19:08:36
(UTC+00:00)

Terra - Pass Details

Date: 05 August 2021
Orbit: 701 x 703 km, 98.2° (Epoch: 17 September)

Event Time Altitude Azimuth Distance (km) Brightness Sun altitude
Exits shadow 22:33:08 19° 224° (SW) 1,634 3.5 -20.6°
Maximum altitude 22:35:26 28° 266° (W) 1,313 3.3 -20.7°
Drops below altitude 10° 22:39:33 10° 325° (NW) 2,183 5.4 -21.0°
Sets 22:42:06 0° 338° (NNW) 3,107 6.7 -21.1°
